Нелькоба

Россия / Магаданская область     61°21′47″N   148°49′19″E
темп.,
°C
ветер,
м/с
пор.,
м/с
влажн.,
%
обл.,
%
осадки,
мм/ч
давл.,
гПа
погр.,
м
17 октября, вс
вс1723:00−22ссз329970 0.0 102019
02:00−23сз2210080 0.0 102021
05:00−21ссз229998 0.1 102031
08:00−21ссз229995 0.0 102136
11:00−18ссз349388 0.1 1021177
14:00−16с348476 0.0 1020433
17:00−17с339075 0.0 102027
20:00−23ссз229938 0.0 10229
18 октября, пн
пн1823:00−24ссз2210069 0.0 102213
02:00−23с4410094 0.0 101938
05:00−23с4410075 0.0 101744
08:00−24ссз3310080 0.0 101644
11:00−20ссз459479 0.1 1013219
14:00−18ссз588295 0.0 1010620
17:00−19ссз339182 0.0 101043
20:00−23ссз339633 0.0 101220
19 октября, вт
вт1923:00−25ссз33995 0.0 101319
02:00−26ссз3310028 0.0 101317
05:00−27ссз3210033 0.0 101317
08:00−27сз3210010 0.0 101415
11:00−22ссз339224 0.0 1012155
14:00−19ссз348429 0.0 1011327
17:00−22сз22935 0.0 101211
20:00−26сз22975 0.0 101510
20 октября, ср
ср2023:00−27сз22997 0.0 101610
02:00−28сз22988 0.0 101710
05:00−28сз11988 0.0 101910
08:00−29зсз11978 0.0 10209
11:00−22ссз22885 0.0 101883
14:00−19с22795 0.0 1017184
17:00−22ссз11904 0.0 10189
20:00−26з11945 0.0 10209
21 октября, чт
чт2123:00−27з11955 0.0 10199
02:00−28зсз119513 0.0 10189
05:00−27зсз119624 0.0 10179
08:00−27сз119673 0.0 10179
11:00−22с118838 0.0 101477
14:00−18с227949 0.0 1011140
17:00−21с118967 0.0 10129
20:00−22сз119282 0.0 10139